Regional Weather Roundup
Issued by NWS Newport/Morehead, NC

Current Version | Previous Version | Text Only | Print | Product List | Glossary Off
Versions: 1 2 3 4 5 6 7 8 9 10 11 12 13 14 15 16 17 18 19 20 21 22 23 24 25 26 27 28 29 30 31 32 33 34 35 36 37 38 39 40 41 42 43 44 45 46 47 48 49 50
000 ASUS42 KMHX 111125 RWRMHX WEATHER ROUNDUP FOR EASTERN NORTH CAROLINA NATIONAL WEATHER SERVICE NEWPORT/MOREHEAD CITY NC 600 AM EST MON DEC 11 2017 NOTE: "FAIR" INDICATES FEW OR NO CLOUDS BELOW 12,000 FEET WITH NO SIGNIFICANT WEATHER AND/OR OBSTRUCTIONS TO VISIBILITY NCZ015>017-031-032-045>047-102-103-111200- NORTH COAST CITY SKY/WX TMP DP RH WIND PRES REMARKS EDENTON CLEAR 39 31 71 W9 30.13R ELIZABETH CITY CLEAR 33 31 92 SW9 30.11S KITTY HAWK SUNNY 39 29 66 W7G17 30.11R MANTEO CLEAR 39 30 71 W10 30.13S $$ NCZ045>047-081-094-103-104-111200- CENTRAL COAST CITY SKY/WX TMP DP RH WIND PRES REMARKS FRISCO CLEAR 44 33 65 W8 30.14R $$ NCZ095-097-098-100-101-111200- SOUTHERN COAST CITY SKY/WX TMP DP RH WIND PRES REMARKS BEAUFORT CLEAR 41 33 73 W6 30.16S CEDAR ISLAND NOT AVBL JACKSONVILLE CLEAR 32 29 88 SW3 30.16S PINEY ISLAND N/A N/A N/A N/A SW9 30.16R WILMINGTON CLEAR 36 29 75 SW6 30.16S $$ NCZ011>013-027>030-043-044-078>080-089-090>093-098-111200- COASTAL PLAIN CITY SKY/WX TMP DP RH WIND PRES REMARKS AHOSKIE CLEAR 28 26 91 CALM 30.12R CLINTON CLOUDY 29 28 96 CALM 30.17R ELIZABETHTOWN NOT AVBL GOLDSBORO CLOUDY 31 26 80 SW5 30.13R GREENVILLE CLEAR 32 28 86 W3 30.15R HAVELOCK CLEAR 34 29 82 SW5 30.17R KENANSVILLE CLEAR 25 25 100 CALM 30.16S KINSTON PTCLDY 29 26 89 SW5 30.15R NEW BERN CLEAR 30 28 92 S7 30.16R RICHLANDS CLEAR 27 25 92 SW3 30.16S ROCKY MOUNT CLEAR 28 26 92 S3 30.13R WASHINGTON CLEAR 32 27 81 SW5 30.14S WHITEVILLE CLEAR 30 28 92 CALM 30.16R $$ AMZ130-135-150-152-154-156-158-170-250-252-270-ANZ085-086-088-633-658-670-111200- MARINE OBSERVATIONS STATION/POSITION TIME TEMP WIND PRES WAVE SWELL AIR SEA DIR/SP/G HT/PER HT/PER (UTC) (F) (DEG/KT/KT) (MB) (FT/S) (FT/S) CHESAPEAKE LIGHT NOT AVBL 64 E VA BEACH 1050 49 60 260/ 19/ 25 1018.6 6/ 5 2/12 DUCK 1100 42 53 240/ 10/ 14 1019.3 2 E DUCK 1100 54 N/A 2/ 9 OREGON INLET 1100 41 45 240/ 12/ 19 1020.1 13E OREGON INLT 1048 57 N/A 4/ 3 2/ 7 HATTERAS CG 1100 45 52 250/ 9/ 15 1020.5 DIAMOND BUOY 1110 51 66 270/ 17/ 23 1020.9 CAPE LOOKOUT 1100 260/ 12/ 14 1021.3 BEAUFORT LAB 1100 44 51 280/ 3/ 7 1021.2 30 SE NEW RVR IN 1008 51 67 280/ 14/ 19 1021.1 30 SE NEW RVR IN 1100 67 N/A 4/ 5 27 SE WRIGHTSVLE 1008 51 66 260/ 17/ 25 1021.3 5 SE WRIGHTSVLE 1108 45 58 270/ 12/ 16 1021.0 225 S CAPE HAT 1050 61 76 320/ 12/ 16 1021.5 5/ 9 5/ 9 41 SE CHARLESTON 1110 73 270/ 16/ 19 1022.2 $$

USA.gov is the U.S. government's official web portal to all federal, state and local government web resources and services.